Regional Weather Roundup
Issued by NWS

Home | Current Version | Previous Version | Text Only | Print | Product List | Glossary On
Versions: 1 2 3 4 5 6 7 8 9 10 11 12 13 14 15 16 17 18 19 20 21 22 23 24 25 26 27 28 29 30 31 32 33 34 35 36 37 38 39 40 41 42 43 44 45 46 47 48 49 50
099
ASUS43 KOAX 230010
RWRNE

WEATHER ROUNDUP FOR NEBRASKA
NATIONAL WEATHER SERVICE OMAHA NE
700 PM CDT SUN APR 22 2018

NOTES: SATELLITE DATA IS BEING USED TO AUGMENT CLOUD COVER ABOVE
       12000 FEET.
       "FAIR" INDICATES FEW OR NO CLOUDS BELOW 12,000 FEET WITH NO
       SIGNIFICANT WEATHER AND/OR OBSTRUCTIONS TO VISIBILITY.


NEZ001>004-019>022-054>056-230100-
NEBRASKA PANHANDLE

CITY           SKY/WX    TMP DP  RH WIND       PRES   REMARKS
SCOTTSBLUFF    SUNNY     62  38  40 SE7       30.08F
6HR MIN TEMP:  49; 6HR MAX TEMP:  63;

ALLIANCE       SUNNY     59  39  47 SE14      30.09S
6HR MIN TEMP:  51; 6HR MAX TEMP:  61;

CHADRON        SUNNY     67  41  38 E7        30.05S
6HR MIN TEMP:  56; 6HR MAX TEMP:  68;

GORDON         FAIR      62  37  40 S6        30.08F
6HR MIN TEMP:  51; 6HR MAX TEMP:  62;

KIMBALL        SUNNY     60  39  45 SE12      30.11S
SIDNEY         SUNNY     57  32  38 SE14      30.12S
6HR MIN TEMP:  51; 6HR MAX TEMP:  60;

$$

NEZ057>060-069>072-079>082-230100-
SOUTHWEST NEBRASKA

CITY           SKY/WX    TMP DP  RH WIND       PRES   REMARKS
NORTH PLATTE   MOSUNNY   55  39  54 S5        30.16S
6HR MIN TEMP:  53; 6HR MAX TEMP:  58;

IMPERIAL       SUNNY     55  35  47 E7        30.15F
6HR MIN TEMP:  49; 6HR MAX TEMP:  56;

LEXINGTON      MOSUNNY   58  38  45 CALM      30.16S
MCCOOK         CLOUDY    59  39  47 E7        30.15S
6HR MIN TEMP:  53; 6HR MAX TEMP:  61;

OGALLALA       SUNNY     56  38  51 S3        30.15S
$$

NEZ005>010-023>029-035>040-094-230100-
NORTH CENTRAL NEBRASKA

CITY           SKY/WX    TMP DP  RH WIND       PRES   REMARKS
VALENTINE      MOSUNNY   62  36  37 S12G21    30.12F
6HR MIN TEMP:  55; 6HR MAX TEMP:  63;

AINSWORTH      MOSUNNY   58  39  49 S9        30.15S
BROKEN BOW     SUNNY     59  37  44 S3        30.15S
6HR MIN TEMP:  53; 6HR MAX TEMP:  61;

O`NEILL        SUNNY     65  32  29 S6        30.16S
ORD            SUNNY     62  33  33 SE6       30.14S
6HR MIN TEMP:  56; 6HR MAX TEMP:  63;

THEDFORD       SUNNY     58  38  47 S12G17    30.16S
$$

NEZ041-046>049-061>064-073>077-083>087-230100-
SOUTH CENTRAL NEBRASKA

CITY           SKY/WX    TMP DP  RH WIND       PRES   REMARKS
GRAND ISLAND   SUNNY     63  36  36 SE14      30.14S
6HR MIN TEMP:  58; 6HR MAX TEMP:  65;

AURORA         CLOUDY    64  32  30 SE12      30.14S
HASTINGS       SUNNY     61  35  37 SE14      30.14S
6HR MIN TEMP:  58; 6HR MAX TEMP:  65;

HEBRON         CLOUDY    62  35  36 E5        30.14S
HOLDREGE       CLOUDY    60  39  46 E3        30.15S
KEARNEY        PTSUNNY   62  36  37 E6        30.15S
YORK             N/A     63  36  36 CALM      30.15S
$$

NEZ011>018-030>034-042>045-230100-
NORTHEAST NEBRASKA

CITY           SKY/WX    TMP DP  RH WIND       PRES   REMARKS
NORFOLK        SUNNY     65  31  28 SE9       30.14S
6HR MIN TEMP:  61; 6HR MAX TEMP:  67;

ALBION         SUNNY     65  35  32 SE7       30.15S
BLAIR          MOSUNNY   67  33  27 E13       30.13F
COLUMBUS       PTSUNNY   66  34  30 E10       30.15S
FREMONT        SUNNY     68  32  26 E8        30.14S
TEKAMAH        SUNNY     67  30  25 NE12      30.13F
6HR MIN TEMP:  61; 6HR MAX TEMP:  70;

WAYNE          SUNNY     66  29  25 E8        30.15S
$$

NEZ050>053-065>068-078-088>093-230100-
SOUTHEAST NEBRASKA

CITY           SKY/WX    TMP DP  RH WIND       PRES   REMARKS
LINCOLN        CLOUDY    66  33  29 E6        30.14S
6HR MIN TEMP:  61; 6HR MAX TEMP:  68;

OMAHA EPPLEY   PTSUNNY   69  31  24 E14       30.13S
6HR MIN TEMP:  66; 6HR MAX TEMP:  71;

BEATRICE       CLOUDY    68  36  31 NE9       30.12S
FALLS CITY     MOSUNNY   67  37  33 E15G21    30.09R
6HR MIN TEMP:  61; 6HR MAX TEMP:  71;

NEBRASKA CITY  CLOUDY    69  36  30 NE13      30.11S
PLATTSMOUTH    MOSUNNY   66  32  28 NE14      30.13S
$$

NEZ044-045-051>053-067-230100-
OMAHA AREA

CITY           SKY/WX    TMP DP  RH WIND       PRES   REMARKS
OMAHA EPPLEY   PTSUNNY   69  31  24 E14       30.13S
6HR MIN TEMP:  66; 6HR MAX TEMP:  71;

BLAIR          MOSUNNY   67  33  27 E13       30.13F
FREMONT        SUNNY     68  32  26 E8        30.14S
MILLARD        CLOUDY    69  34  27 E3        30.13S
OFFUTT AFB     CLOUDY    66  33  29 NE10      30.12S
PLATTSMOUTH    MOSUNNY   66  32  28 NE14      30.13S
WAHOO          MOCLDY    66  28  24 E5        30.13S
$$




USA.gov is the U.S. government's official web portal to all federal, state and local government web resources and services.